Location: Newark
(48.6676°N, 6.1917°E)
Time: 12:50:00
(UTC+00:00)

N. Korean satellite - Pass Details

Date: 08 December 2019
Orbit: 454 x 508 km, 97.2° (Epoch: 17 January)

Event Time Altitude Azimuth Distance (km) Brightness Sun altitude
Rises 05:50:19 0° 9° (N) 2,569 10.1 -13.1°
Reaches altitude 10° 05:52:26 10° 6° (N) 1,674 9.1 -12.8°
Maximum altitude 05:55:58 58° 286° (WNW) 560 6.5 -12.3°
Drops below altitude 10° 05:59:24 10° 207° (SSW) 1,629 9.2 -11.7°
Sets 06:01:26 0° 203° (SSW) 2,492 10.2 -11.4°
